カタログに戻る

TYVAK-182A

運用中通信SSO
NORAD 48271·PAYLOAD·🇮🇹 Italy

打ち上げ Apr 29, 2021 から Guiana Space Centre

Loading…

次のパス (今後24時間)

TLE

最新Source: Space-Track

元期: Sep 14, 2026, 14:21 UTC

1 48271U 21034D   26257.59855887  .00003119  00000-0  21327-3 0  9991
2 48271  97.5627 314.9627 0006508  38.5679 321.6012 15.06839740293292

AllMySatでTYVAK-182Aをリアルタイム追跡

Download on the App Store